When you browse on this site, cookies collect data to enhance your experience and personalize the content and advertising you see.
Visit our Privacy Policy to learn more. By continuing to use the site, you agree to this use of cookies and data.
  • In Austria
  • List of Countries
  • For 7 days
  • Water Temperature
  • Weather Map
  • News
  • Weather Widgets
  • user-avatar
    Login

    Hourly Weather Gjirokaster

    Today, 9 December, Monday

    Time Temperature Precipitation Wind Pressure Humidity
    00:00 +3°C° 0 mm 1 mps 650 mmHg 80%
    01:00 +3°C° 0 mm 1 mps 650 mmHg 78%
    02:00 +3°C° 0 mm 1 mps 650 mmHg 77%
    03:00 +3°C° 0 mm 1 mps 649 mmHg 77%
    04:00 +3°C° 0 mm 1 mps 649 mmHg 77%
    05:00 +3°C° 0 mm 1 mps 649 mmHg 78%
    06:00 +2°C° 0 mm 1 mps 649 mmHg 78%
    07:00 +1°C° 0 mm 2 mps 649 mmHg 79%
    08:00 +3°C° 0 mm 2 mps 649 mmHg 76%
    09:00 +4°C° 0 mm 2 mps 649 mmHg 73%
    10:00 +6°C° 0 mm 2 mps 649 mmHg 70%
    11:00 +6°C° 0 mm 2 mps 649 mmHg 68%
    12:00 +7°C° 0 mm 2 mps 649 mmHg 67%
    13:00 +7°C° 0 mm 2 mps 648 mmHg 65%
    14:00 +7°C° 0 mm 1 mps 648 mmHg 71%
    15:00 +6°C° 0 mm 1 mps 647 mmHg 76%
    16:00 +6°C° 0 mm 1 mps 647 mmHg 82%
    17:00 +5°C° 0 mm 1 mps 646 mmHg 83%
    18:00 +4°C° 0 mm 2 mps 646 mmHg 85%
    19:00 +3°C° 0 mm 2 mps 646 mmHg 87%
    20:00 +3°C° 0 mm 2 mps 646 mmHg 87%
    21:00 +3°C° 0 mm 2 mps 646 mmHg 87%
    22:00 +3°C° 0 mm 2 mps 645 mmHg 87%
    23:00 +3°C° 0.2 mm 2 mps 645 mmHg 86%

    Tomorrow, 10 December, Tuesday

    Time Temperature Precipitation Wind Pressure Humidity
    00:00 +3°C° 0.2 mm 2 mps 645 mmHg 85%
    01:00 +3°C° 0.2 mm 2 mps 644 mmHg 85%
    02:00 +3°C° 1.8 mm 2 mps 644 mmHg 86%
    03:00 +3°C° 1.8 mm 2 mps 644 mmHg 88%
    04:00 +3°C° 1.8 mm 2 mps 643 mmHg 89%
    05:00 +3°C° 3.4 mm 2 mps 643 mmHg 90%
    06:00 +2°C° 3.4 mm 2 mps 643 mmHg 92%
    07:00 +2°C° 3.4 mm 2 mps 643 mmHg 94%
    08:00 +2°C° 1.4 mm 2 mps 643 mmHg 92%
    09:00 +2°C° 1.4 mm 2 mps 643 mmHg 91%
    10:00 +2°C° 1.4 mm 2 mps 644 mmHg 90%
    11:00 +3°C° 0.5 mm 2 mps 643 mmHg 88%
    12:00 +3°C° 0.5 mm 2 mps 643 mmHg 86%
    13:00 +3°C° 0.5 mm 2 mps 643 mmHg 83%
    14:00 +3°C° 0 mm 2 mps 643 mmHg 84%
    15:00 +4°C° 0 mm 1 mps 643 mmHg 85%
    16:00 +4°C° 0 mm 1 mps 642 mmHg 87%
    17:00 +3°C° 0 mm 1 mps 642 mmHg 87%
    18:00 +3°C° 0 mm 1 mps 642 mmHg 87%
    19:00 +3°C° 0 mm 1 mps 642 mmHg 87%
    20:00 +3°C° 0 mm 1 mps 642 mmHg 86%
    21:00 +3°C° 0 mm 1 mps 643 mmHg 86%
    22:00 +3°C° 0 mm 1 mps 643 mmHg 85%
    23:00 +3°C° 0 mm 1 mps 643 mmHg 85%

    Day after tomorrow, 11 December, Wednesday

    Time Temperature Precipitation Wind Pressure Humidity
    00:00 +3°C° 0 mm 1 mps 643 mmHg 84%
    01:00 +3°C° 0 mm 1 mps 643 mmHg 84%
    02:00 +3°C° 0.3 mm 1 mps 643 mmHg 86%
    03:00 +2°C° 0.3 mm 2 mps 642 mmHg 87%
    04:00 +2°C° 0.3 mm 2 mps 642 mmHg 89%
    05:00 +2°C° 0 mm 2 mps 642 mmHg 88%
    06:00 +2°C° 0 mm 2 mps 642 mmHg 88%
    07:00 +2°C° 0 mm 2 mps 642 mmHg 88%
    08:00 +2°C° 0 mm 2 mps 643 mmHg 83%
    09:00 +3°C° 0 mm 2 mps 644 mmHg 79%
    10:00 +4°C° 0 mm 2 mps 644 mmHg 75%
    11:00 +4°C° 0 mm 2 mps 644 mmHg 72%
    12:00 +6°C° 0 mm 1 mps 644 mmHg 69%
    13:00 +6°C° 0 mm 1 mps 644 mmHg 66%
    14:00 +6°C° 0 mm 1 mps 644 mmHg 69%
    15:00 +5°C° 0 mm 1 mps 644 mmHg 72%
    16:00 +5°C° 0 mm 1 mps 644 mmHg 75%
    17:00 +3°C° 0 mm 2 mps 644 mmHg 77%
    18:00 +2°C° 0 mm 2 mps 644 mmHg 78%
    19:00 +2°C° 0 mm 2 mps 644 mmHg 80%
    20:00 +1°C° 0 mm 2 mps 644 mmHg 80%
    21:00 +1°C° 0 mm 2 mps 644 mmHg 80%
    22:00 +1°C° 0 mm 2 mps 644 mmHg 81%
    23:00 -1°C° 0 mm 2 mps 644 mmHg 80%

    12 December, Thursday

    Time Temperature Precipitation Wind Pressure Humidity
    00:00 -1°C° 0 mm 2 mps 643 mmHg 80%
    01:00 +1°C° 0 mm 1 mps 643 mmHg 80%
    02:00 +1°C° 0 mm 1 mps 643 mmHg 80%
    03:00 +1°C° 0 mm 1 mps 643 mmHg 81%
    04:00 +1°C° 0 mm 1 mps 643 mmHg 81%
    05:00 +1°C° 0 mm 1 mps 643 mmHg 80%
    06:00 +1°C° 0 mm 1 mps 643 mmHg 80%
    07:00 +1°C° 0 mm 1 mps 643 mmHg 79%
    08:00 +2°C° 0 mm 1 mps 644 mmHg 75%
    09:00 +4°C° 0 mm 1 mps 644 mmHg 70%
    10:00 +4°C° 0 mm 0 mps 645 mmHg 66%
    11:00 +6°C° 0 mm 1 mps 645 mmHg 65%
    12:00 +6°C° 0 mm 1 mps 645 mmHg 65%
    13:00 +6°C° 0 mm 1 mps 645 mmHg 65%
    14:00 +6°C° 0 mm 1 mps 644 mmHg 69%
    15:00 +5°C° 0 mm 1 mps 644 mmHg 74%
    16:00 +4°C° 0 mm 1 mps 644 mmHg 79%
    17:00 +4°C° 0 mm 1 mps 644 mmHg 81%
    18:00 +2°C° 0 mm 0 mps 644 mmHg 83%
    19:00 +2°C° 0 mm 0 mps 644 mmHg 85%
    20:00 +2°C° 0 mm 0 mps 644 mmHg 85%
    21:00 +1°C° 0 mm 0 mps 644 mmHg 86%
    22:00 +1°C° 0 mm 0 mps 644 mmHg 86%
    23:00 +1°C° 0 mm 0 mps 643 mmHg 87%

    13 December, Friday

    Time Temperature Precipitation Wind Pressure Humidity
    00:00 +1°C° 0 mm 0 mps 643 mmHg 87%
    01:00 +1°C° 0 mm 1 mps 643 mmHg 87%
    02:00 +1°C° 0 mm 1 mps 643 mmHg 88%
    03:00 +1°C° 0 mm 1 mps 643 mmHg 88%
    04:00 +1°C° 0 mm 1 mps 643 mmHg 88%
    05:00 +1°C° 0 mm 1 mps 643 mmHg 88%
    06:00 +1°C° 0 mm 1 mps 643 mmHg 88%
    07:00 +1°C° 0 mm 1 mps 643 mmHg 88%
    08:00 +2°C° 0 mm 1 mps 643 mmHg 84%
    09:00 +3°C° 0 mm 1 mps 644 mmHg 80%
    10:00 +5°C° 0 mm 1 mps 644 mmHg 76%
    11:00 +5°C° 0.1 mm 1 mps 644 mmHg 74%
    12:00 +5°C° 0.1 mm 1 mps 644 mmHg 72%
    13:00 +6°C° 0.1 mm 1 mps 644 mmHg 70%
    14:00 +5°C° 0.1 mm 1 mps 643 mmHg 75%
    15:00 +4°C° 0.1 mm 1 mps 643 mmHg 80%
    16:00 +4°C° 0.1 mm 1 mps 643 mmHg 85%
    17:00 +3°C° 0 mm 1 mps 643 mmHg 87%
    18:00 +3°C° 0 mm 1 mps 643 mmHg 88%
    19:00 +1°C° 0 mm 2 mps 642 mmHg 90%
    20:00 +2°C° 0.1 mm 2 mps 642 mmHg 90%
    21:00 +2°C° 0.1 mm 2 mps 642 mmHg 89%
    22:00 +1°C° 0.1 mm 3 mps 642 mmHg 88%
    23:00 +1°C° 3.4 mm 3 mps 641 mmHg 91%

    14 December, Saturday

    Time Temperature Precipitation Wind Pressure Humidity
    00:00 0°C° 3.4 mm 4 mps 640 mmHg 93%
    01:00 0°C° 3.4 mm 4 mps 639 mmHg 95%
    02:00 +1°C° 4.8 mm 4 mps 639 mmHg 93%
    03:00 +1°C° 4.8 mm 5 mps 639 mmHg 91%
    04:00 +2°C° 4.8 mm 5 mps 639 mmHg 89%
    05:00 +1°C° 0.4 mm 4 mps 639 mmHg 89%
    06:00 +1°C° 0.4 mm 4 mps 639 mmHg 89%
    07:00 0°C° 0.4 mm 4 mps 640 mmHg 89%
    08:00 +1°C° 0.2 mm 5 mps 640 mmHg 84%
    09:00 +2°C° 0.2 mm 5 mps 641 mmHg 79%
    10:00 +3°C° 0.2 mm 6 mps 642 mmHg 73%
    11:00 +3°C° 0 mm 6 mps 643 mmHg 69%
    12:00 +5°C° 0 mm 5 mps 643 mmHg 65%
    13:00 +5°C° 0 mm 5 mps 643 mmHg 62%
    14:00 +4°C° 0 mm 4 mps 644 mmHg 66%
    15:00 +3°C° 0 mm 3 mps 644 mmHg 70%
    16:00 +4°C° 0 mm 2 mps 644 mmHg 74%
    17:00 +3°C° 0 mm 2 mps 645 mmHg 74%
    18:00 +3°C° 0 mm 2 mps 645 mmHg 75%
    19:00 +2°C° 0 mm 2 mps 646 mmHg 76%
    20:00 +2°C° 0 mm 2 mps 646 mmHg 75%
    21:00 +2°C° 0 mm 2 mps 647 mmHg 74%
    22:00 +2°C° 0 mm 2 mps 647 mmHg 73%
    23:00 +3°C° 0 mm 1 mps 648 mmHg 73%
    Show more